Home   Weather   Tegucigalpa   Past weeks
Flag for Honduras

Past Weather in Tegucigalpa, Honduras — Yesterday and Last 2 Weeks

Now
81 °F

Passing clouds.


Feels Like: 81 °F
Forecast: 85 / 58 °F
Wind: 15 mph from Southwest

Location: Tegucigalpa Airport

Current Time: Feb 16, 2019 at 6:03:25 pm

Latest Report: Feb 16, 2019 at 5:00 pm


Visibility: N/A

Pressure: 29.95 "Hg (26.56 "Hg at 1054m altitude)

Humidity: 51%

Dew Point: 61 °F

Location of TegucigalpaLocation

Past Weather in Tegucigalpa — Graph

°F

Tegucigalpa Temperature Yesterday

Maximum temperature yesterday: 88 °F (at 3:00 pm)
Minimum temperature yesterday: 63 °F (at 6:03 am)
Average temperature yesterday: 72 °F

High & Low Weather Summary for the Past Weeks

 TemperatureHumidityPressure
High88 °F (Feb 15, 3:00 pm)100% (Feb 2, 6:00 am)30.21 "Hg (Feb 2, 6:00 am)
Low54 °F (Feb 2, 3:00 am)21% (Feb 16, 1:00 pm)29.89 "Hg (Feb 4, 10:00 am)
Average69 °F66%30.08 "Hg
* Reported Feb 1 5:00 pm — Feb 16 5:00 pm, Tegucigalpa. Weather by CustomWeather, © 2019

Note: Actual official high and low records may vary slightly from our data, if they occured in-between our weather recording intervals... More about our weather records

Advertising

Tegucigalpa Weather History for the Previous 24 Hours

Scroll right to see more
 ConditionsComfort  
Time TempWeatherWind HumidityBarometerVisibility
5:00 pm
Sat, Feb 16
81 °FPassing clouds.15 mph51%29.95 "HgN/A
4:00 pm84 °FPassing clouds.2 mph43%29.92 "HgN/A
3:00 pm86 °FPassing clouds.12 mph38%29.92 "HgN/A
2:00 pm88 °FPassing clouds.7 mph35%29.95 "HgN/A
1:00 pm88 °FPassing clouds.2 mph21%29.98 "HgN/A
12:00 pm86 °FPassing clouds.2 mph35%30.01 "HgN/A
11:00 am81 °FPassing clouds.7 mph45%30.07 "HgN/A
10:00 am81 °FPassing clouds.No wind48%30.07 "HgN/A
9:00 am73 °FPassing clouds.2 mph65%30.09 "HgN/A
8:00 am68 °FPassing clouds.No wind78%30.09 "Hg5 mi
7:00 am59 °FPassing clouds.No wind94%30.07 "Hg5 mi
6:00 am59 °FPassing clouds.No wind88%30.07 "HgN/A
5:00 am61 °FPassing clouds.No wind88%30.04 "HgN/A
4:00 am64 °FPassing clouds.5 mph88%30.04 "HgN/A
3:00 am64 °FPassing clouds.3 mph88%30.04 "HgN/A
2:00 am68 °FPassing clouds.7 mph83%30.04 "HgN/A
12:00 am70 °FPassing clouds.9 mph78%30.07 "HgN/A
11:00 pm
Fri, Feb 15
70 °FPassing clouds.9 mph78%30.07 "HgN/A
10:00 pm72 °FPassing clouds.9 mph73%30.07 "HgN/A
9:00 pm72 °FPassing clouds.7 mph73%30.07 "HgN/A
8:00 pm73 °FPassing clouds.7 mph69%30.04 "HgN/A
7:00 pm75 °FPassing clouds.14 mph61%30.01 "HgN/A
6:00 pm79 °FPassing clouds.7 mph54%29.98 "HgN/A
Weather by CustomWeather, © 2019

See weather overview